STARLINK-35964, 66796

Orbit data source: Space-Track

STARLINK-35964, 66796 is a payload satellite owned by SpaceX/Seattle (US) in LEO that was launched on Mon, 01 Dec 2025 UTC via an FALCON 9 launch vehicle from the Air Force Eastern Test Range (AFETR). Payload-class satellites include a variety of spacecraft equipped with specific instruments for various scientific and technological missions. These include communications satellites like Starlink; space stations such as the ISS; scientific satellites like the Hubble; Earth observation satellites from companies like Planet Labs, Umbra, and HawkEye 360; GPS; miniature CubeSats for education and research; and military/defense satellites.

Loading next visibility...
Identifier
66796, 2025-278F
Orbit
LEO
Country
Flag of USUS
Related business
Manufacturer
SpaceX/Seattle
Mission
Operational Commercial Communications
Bus & Motor
STARLINK V2MO, Unknown motor
Mass
575 kg wet, ~530 kg dry
Launch date (UTC)
2025-12-01 (7 months ago)
Launch vehicle
FALCON 9
Launch site
Air Force Eastern Test Range (AFETR)
Object type
Payload
Rocket body
Debris
Shape & HBR
Box + 2 Pan, 17.7 m
Radar Cross Section
36.964 m², Large (>1 m²)

Expand to show TLE details & history
Last TLE update: 9 hours ago

TLE from 9 hours ago
0 STARLINK-35964
1 66796U 25278F   26171.45252897  .00011355  00000-0  42148-3 0  9994
2 66796  43.0010 239.1222 0001568 255.0935 104.9743 15.27582779 31098
Epoch: 2026-06-20T10:51Z
TLE epoch observation values (Epoch: 2026-06-20T10:51:38.503Z)
Latitude
-0.00005°
Longitude
167.54478°
Altitude
483.094 km
Speed
7.626 km/s
True Right ascension
15h 56m 29s
True Declination
0° 00' 00"
Sunlit
Object was in full shadow at epoch
Visualization orbit readout
Latitude
Unknown
Longitude
Unknown
Altitude
Unknown
Speed
Unknown
Apparent Right ascension
Unknown
Apparent Declination
Unknown
Sunlit
N/A
Visualization observer readout
Local Sidereal Time
07:17:18
Azimuth
Unknown
Elevation
Unknown
Doppler factor
Unknown
Orbital elements
Apogee altitude
486.062 km
Perigee altitude
483.91 km
Semi-major axis
6,863.123 km
Eccentricity
0.00016
Inclination
43.001°
RAAN
239.1222°
Arg. of periapsis
255.0935°
True anomaly
104.99166°
Mean anomaly
104.9743°
Eccentric anomaly
104.98298°
Mean motion
3.81734 °/min
Orbital period
94.31 mins
BSTAR
0.00042148
Loading maneuver chart data...
Computing Atmospheric mass density...
Loading historical data...
Loading historical data...
Loading historical data...
Loading historical data...
Loading historical data...
Loading historical data...
Loading historical data...

Documentation

Showing up to 5 results
|